EW9559 Weather Reports


Display with metric or nautical units.
time (UTC)temp
F
wind
direction
speed
MPH
gust
MPH
rain 1hr
in
rain 24hr
in
rain mn
in
humidity
%
barometer
mb
20210619034524 71 273 4.0 0.0 0.00 0.00 0.00 52 1017.1
20210619033030 71 277 3.0 0.0 0.00 0.00 0.00 51 1017.1
20210619031525 72 277 3.0 0.0 0.00 0.00 0.00 51 1017.1
20210619030042 73 285 4.0 0.0 0.00 0.00 0.00 50 1017.1
20210619023035 74 291 5.0 0.0 0.00 0.00 0.00 49 1016.8
20210619021526 75 293 4.0 0.0 0.00 0.00 0.00 48 1016.8
20210619020029 75 288 4.0 0.0 0.00 0.00 0.00 47 1016.8
20210619014529 76 292 4.0 0.0 0.00 0.00 0.00 46 1016.4
20210619013034 77 297 4.0 0.0 0.00 0.00 0.00 44 1016.4
20210619011526 78 286 3.0 0.0 0.00 0.00 0.00 44 1016.4
20210619010027 79 275 4.0 0.0 0.00 0.00 0.00 44 1016.8
20210619004537 79 274 3.0 0.0 0.00 0.00 0.00 44 1016.8
20210619003030 79 306 4.0 0.0 0.00 0.00 0.00 44 1016.8
20210619001530 78 302 5.0 0.0 0.00 0.00 0.00 45 1016.8
20210619000037 78 314 8.0 0.0 0.00 0.00 0.00 45 1016.8
20210618234525 78 316 10.0 0.0 0.00 0.00 0.00 46 1016.8
20210618233027 77 327 14.0 0.0 0.00 0.00 0.00 46 1016.8
20210618231525 77 328 16.0 0.0 0.00 0.00 0.00 46 1016.4
20210618230022 77 325 15.0 0.0 0.00 0.00 0.00 46 1016.4
20210618224526 77 323 14.0 0.0 0.00 0.00 0.00 46 1016.4
20210618223032 77 328 13.0 0.0 0.00 0.00 0.00 46 1016.8
20210618221525 77 330 12.0 0.0 0.00 0.00 0.00 46 1017.1
20210618220038 77 332 11.0 0.0 0.00 0.00 0.00 45 1017.1
20210618214528 77 332 13.0 0.0 0.00 0.00 0.00 44 1017.1
20210618213032 77 336 10.0 0.0 0.00 0.00 0.00 45 1017.5
20210618211526 77 335 11.0 0.0 0.00 0.00 0.00 45 1017.5
20210618210026 76 338 10.0 0.0 0.00 0.00 0.00 48 1017.5
20210618204524 75 339 10.0 0.0 0.00 0.00 0.00 49 1017.5
20210618203028 75 332 12.0 0.0 0.00 0.00 0.00 49 1017.8
20210618201526 74 324 11.0 0.0 0.00 0.00 0.00 50 1017.8
20210618200029 74 320 12.0 0.0 0.00 0.00 0.00 50 1017.8
20210618194530 73 322 13.0 0.0 0.00 0.00 0.00 50 1018.2
20210618193027 74 327 12.0 0.0 0.00 0.00 0.00 50 1018.2
20210618191529 74 330 11.0 0.0 0.00 0.00 0.00 51 1018.2
20210618190040 73 329 11.0 0.0 0.00 0.00 0.00 51 1018.2
20210618184530 73 331 10.0 0.0 0.00 0.00 0.00 51 1018.2
20210618183023 73 331 10.0 0.0 0.00 0.00 0.00 51 1018.5
20210618181526 73 336 10.0 0.0 0.00 0.00 0.00 51 1018.5
20210618180038 74 334 8.0 0.0 0.00 0.00 0.00 51 1018.9
20210618174534 74 327 5.0 0.0 0.00 0.00 0.00 51 1018.9
20210618173032 73 293 2.0 0.0 0.00 0.00 0.00 53 1019.2
20210618171528 72 50 3.0 0.0 0.00 0.00 0.00 54 1019.2
20210618170038 73 164 2.0 0.0 0.00 0.00 0.00 53 1019.6
20210618164528 74 199 1.0 0.0 0.00 0.00 0.00 53 1019.6
20210618163027 73 189 1.0 0.0 0.00 0.00 0.00 54 1019.9
20210618161531 72 184 1.0 0.0 0.00 0.00 0.00 55 1019.9
20210618160028 71 171 2.0 0.0 0.00 0.00 0.00 54 1019.9
20210618153027 69 169 1.0 0.0 0.00 0.00 0.00 57 1020.2
20210618151526 68 198 0.0 0.0 0.00 0.00 0.00 58 1020.2
20210618150031 69 188 1.0 0.0 0.00 0.00 0.00 56 1020.2
20210618144532 68 174 1.0 0.0 0.00 0.00 0.00 57 1020.2
20210618143039 67 196 0.0 0.0 0.00 0.00 0.00 58 1020.2
20210618141540 66 196 0.0 0.0 0.00 0.00 0.00 60 1020.6
20210618140031 65 208 0.0 0.0 0.00 0.00 0.00 62 1020.6
20210618134533 63 206 0.0 0.0 0.00 0.00 0.00 65 1020.6
20210618133026 61 229 0.0 0.0 0.00 0.00 0.00 68 1020.2
20210618131533 59 235 0.0 0.0 0.00 0.00 0.00 70 1020.2
20210618130036 58 242 1.0 0.0 0.00 0.00 0.00 71 1020.2
20210618124526 58 247 1.0 0.0 0.00 0.00 0.00 72 1020.2
20210618123030 57 260 1.0 0.0 0.00 0.00 0.00 73 1020.2
20210618121528 57 257 1.0 0.0 0.00 0.00 0.00 73 1020.2
20210618120031 56 299 1.0 0.0 0.00 0.00 0.00 72 1020.2
20210618114530 57 241 1.0 0.0 0.00 0.00 0.00 71 1020.2
20210618113026 56 18 1.0 0.0 0.00 0.00 0.00 71 1019.9
20210618111528 58 44 0.0 0.0 0.00 0.00 0.00 68 1019.9
20210618110030 60 249 0.0 0.0 0.00 0.00 0.00 66 1019.9
20210618104524 59 257 2.0 0.0 0.00 0.00 0.00 67 1019.9
20210618103031 59 271 2.0 0.0 0.00 0.00 0.00 66 1019.9
20210618101531 59 218 0.0 0.0 0.00 0.00 0.00 66 1019.9
20210618100031 59 223 0.0 0.0 0.00 0.00 0.00 66 1019.9
20210618094526 59 267 1.0 0.0 0.00 0.00 0.00 68 1019.9
20210618091527 60 305 3.0 0.0 0.00 0.00 0.00 66 1019.9
20210618090035 60 290 2.0 0.0 0.00 0.00 0.00 66 1019.9
20210618084541 60 277 2.0 0.0 0.00 0.00 0.00 65 1019.9
20210618083026 61 278 1.0 0.0 0.00 0.00 0.00 63 1019.9
20210618081530 61 290 1.0 0.0 0.00 0.00 0.00 62 1019.9
20210618080029 62 288 2.0 0.0 0.00 0.00 0.00 60 1019.9
20210618074526 63 273 1.0 0.0 0.00 0.00 0.00 58 1019.9
20210618073028 65 279 1.0 0.0 0.00 0.00 0.00 57 1019.9
20210618071532 64 299 2.0 0.0 0.00 0.00 0.00 59 1019.9
20210618070029 64 300 2.0 0.0 0.00 0.00 0.00 60 1019.9
20210618064533 64 303 2.0 0.0 0.00 0.00 0.00 59 1019.9
20210618063028 64 297 2.0 0.0 0.00 0.00 0.00 59 1019.9
20210618061533 65 301 3.0 0.0 0.00 0.00 0.00 57 1019.9
20210618060028 67 290 2.0 0.0 0.00 0.00 0.00 53 1019.9
20210618051535 66 313 3.0 0.0 0.00 0.00 0.00 54 1019.6
20210618050026 68 302 3.0 0.0 0.00 0.00 0.00 51 1019.6
20210618044526 69 301 1.0 0.0 0.00 0.00 0.00 49 1019.2
20210618043024 70 329 1.0 0.0 0.00 0.00 0.00 47 1018.9
20210618041538 71 252 0.0 0.0 0.00 0.00 0.00 47 1018.9
20210618040034 72 286 2.0 0.0 0.00 0.00 0.00 47 1018.5